Content
SEND FEEDBACK

Daily
Averages
Monthly
Summary
Philippines

OLONGAPO, PHILIPPINES


Home > Asia > Philippines
Elevation: 55 feet     Latitude: 14 48N     Longitude: 120 16E

WEATHER
 
SELECT A DAY
Number of Records: 140,816;   Date Range: 7/31/96 - 12/17/14
 
SHARE

PRINT THIS DATA

[ ← Previous Day ]
WEATHER ALMANAC - NOVEMBER 16, 2013
[ Next Day → ]
[ °C ]   °F
Weather ElementAverageHighLow
Temperature83.4 °F91.4 °F (1:00 pm)77 °F (6:00 am)
Dewpoint73 °F77 °F (3:00 pm)71 °F (11:00 am)
Humidity69.9 %84 % (9:00 pm)44 % (2:00 pm)
Barometer29.85 in29.89 in (8:00 am)29.80 in (2:00 pm)
Wind Speed8.7 mph16.1 mph (10:00 am)
Weather ElementAverage
Visibility7.4 mi
Wind DirectionENE (82.5 °)

Weather ElementTotal
Precipitation---
Cooling Degree Days19.2 (Base 65)
Growing Degree Days34.2 (Base 50)
Averaged from 28 records on November 16, 2013
WEATHER CONDITIONS BREAKOUT
WIND DIRECTION BREAKOUT
WEATHER BY HOUR - NOVEMBER 16, 2013
[ °C ]   °F
Local TimeTemperatureDewpointHumidityBarometerVisibilityWind DirectionWind SpeedGust SpeedPrecipitationEventsConditions
1:00 AM78.8 °F73.4 °F83 %29.86 in6.2 miEast (100°)5.8 mphPartly Cloudy
2:00 AM80.0 °F72.0 °F71 %29.86 in7.0 miENE (70°)8.9 mphHaze
2:00 AM78.8 °F71.6 °F78 %29.86 in6.2 miENE (70°)9.2 mphPartly Cloudy
5:00 AM79.0 °F74.0 °F81 %29.84 in7.0 miEast (90°)11.2 mphHaze
5:00 AM78.8 °F73.4 °F83 %29.83 in6.2 miEast (90°)11.5 mphPartly Cloudy
6:00 AM77.0 °F71.6 °F83 %29.86 in6.2 miEast (80°)6.9 mphOvercast
7:00 AM78.8 °F71.6 °F78 %29.86 in6.2 miVariable3.5 mphPartly Cloudy
8:00 AM80.6 °F71.6 °F74 %29.89 in6.2 miENE (70°)8.1 mphPartly Cloudy
8:00 AM80.0 °F72.0 °F71 %29.89 in12.0 miENE (70°)8.9 mphHaze
9:00 AM84.2 °F71.6 °F66 %29.89 in6.2 miENE (70°)12.7 mphPartly Cloudy
10:00 AM82.4 °F75.2 °F79 %29.89 in6.2 miEast (90°)16.1 mphPartly Cloudy
11:00 AM87.0 °F71.0 °F51 %29.88 in12.0 miEast (100°)13.4 mphHaze
11:00 AM87.8 °F71.6 °F58 %29.86 in6.2 miEast (100°)12.7 mphPartly Cloudy
12:00 PM89.6 °F71.6 °F55 %29.86 in6.2 miENE (70°)15.0 mphScattered Clouds
1:00 PM91.4 °F73.4 °F55 %29.83 in6.2 miEast (80°)13.8 mphMostly Cloudy
2:00 PM91.0 °F72.0 °F44 %29.81 in12.0 miNE (50°)11.2 mphHaze
2:00 PM91.4 °F71.6 °F52 %29.80 in6.2 miNE (50°)11.5 mphMostly Cloudy
3:00 PM89.6 °F77.0 °F66 %29.80 in6.2 miENE (70°)8.1 mphScattered Clouds
4:00 PM91.4 °F71.6 °F52 %29.80 in6.2 miNE (50°)8.1 mphPartly Cloudy
5:00 PM85.0 °F75.0 °F65 %29.81 in12.0 miNNE (20°)4.5 mphHaze
5:00 PM86.0 °F75.2 °F70 %29.80 in6.2 miNNE (20°)4.6 mphScattered Clouds
6:00 PM84.2 °F75.2 °F74 %29.80 in6.2 miNorth (360°)5.8 mphScattered Clouds
7:00 PM82.4 °F75.2 °F79 %29.83 in6.2 miEast (80°)4.6 mphPartly Cloudy
8:00 PM81.0 °F72.0 °F67 %29.86 in11.0 miEast (90°)6.7 mphHaze
8:00 PM80.6 °F71.6 °F74 %29.86 in6.2 miEast (90°)5.8 mphPartly Cloudy
9:00 PM80.6 °F75.2 °F84 %29.86 in6.2 miEast (100°)6.9 mphPartly Cloudy
11:00 PM78.0 °F73.0 °F80 %29.88 in11.0 miEast (90°)4.5 mphHaze
11:00 PM78.8 °F73.4 °F83 %29.86 in6.2 miEast (90°)3.5 mphPartly Cloudy
Hourly data recorded from RPLB, located miles away from Olongapo, Philippines







STORIES FROM OUR PARTNERS